Home   Weather   Township of Greenwich   Past weeks
Flag for USA

Past Weather in Township of Greenwich, New Jersey, USA — Yesterday and Last 2 Weeks

Now
62 °F

Overcast.


Feels Like: 62 °F
Forecast: 65 / 47 °F
Wind: 8 mph from West

Location: Dover Air Force Base

Current Time: Oct 23, 2019 at 1:15:24 am

Latest Report: Oct 22, 2019 at 11:56 pm


Visibility: 10 mi

Pressure: 29.83 "Hg

Humidity: 100%

Dew Point: 62 °F

Location of Township of GreenwichLocation

Past Weather in Township of Greenwich — Graph

°F

Township of Greenwich Temperature Yesterday

Maximum temperature yesterday: 66 °F (at 7:44 pm)
Minimum temperature yesterday: 59 °F (at 5:56 am)
Average temperature yesterday: 62 °F

High & Low Weather Summary for the Past Weeks

 TemperatureHumidityPressure
High75 °F (Oct 10, 2:56 pm)100% (Oct 13, 11:24 pm)30.25 "Hg (Oct 13, 11:24 pm)
Low40 °F (Oct 19, 6:56 am)30% (Oct 14, 3:56 pm)29.39 "Hg (Oct 16, 5:19 pm)
Average59 °F75%30.00 "Hg
* Reported Oct 7 11:56 pm — Oct 22 11:56 pm, Township of Greenwich. Weather by CustomWeather, © 2019

Note: Actual official high and low records may vary slightly from our data, if they occured in-between our weather recording intervals... More about our weather records

Advertising

Township of Greenwich Weather History for the Previous 24 Hours

Scroll right to see more
 ConditionsComfort  
Time TempWeatherWind HumidityBarometerVisibility
11:56 pm
Tue, Oct 22
62 °FOvercast.8 mph100%29.83 "Hg10 mi
11:42 pm63 °FOvercast.7 mph100%29.83 "Hg10 mi
11:33 pm63 °FLight rain. Overcast.7 mph100%29.83 "Hg10 mi
11:16 pm63 °FOvercast.6 mph100%29.83 "Hg10 mi
10:56 pm62 °FMostly cloudy.3 mph100%29.83 "Hg10 mi
10:30 pm63 °FDrizzle. Mostly cloudy.3 mph100%29.83 "Hg5 mi
10:06 pm63 °FFog.No wind100%29.83 "Hg6 mi
9:57 pm63 °FLight rain. Mostly cloudy.No wind100%29.83 "Hg10 mi
9:36 pm63 °FLight rain. Low clouds.No wind100%29.83 "Hg6 mi
9:06 pm63 °FLight rain. Passing clouds.6 mph100%29.82 "Hg5 mi
8:56 pm63 °FLight rain. Passing clouds.6 mph100%29.82 "Hg6 mi
7:57 pm65 °FRain. Overcast.8 mph100%29.82 "Hg5 mi
7:44 pm66 °FLight rain. Overcast.7 mph100%29.81 "Hg9 mi
7:04 pm64 °FHeavy rain. Passing clouds.8 mph100%29.81 "Hg3 mi
6:56 pm64 °FRain. Mostly cloudy.9 mph100%29.82 "Hg4 mi
6:19 pm64 °FLight rain. Low clouds.3 mph100%29.81 "Hg6 mi
5:57 pm64 °FFog.12 mph100%29.80 "Hg6 mi
5:31 pm64 °FLight rain. Low clouds.10 mph100%29.80 "Hg5 mi
5:19 pm64 °FFog.14 mph100%29.81 "Hg4 mi
4:18 pm64 °FFog.10 mph94%29.85 "Hg5 mi
3:56 pm64 °FMostly cloudy.13 mph99%29.85 "Hg10 mi
3:27 pm64 °FMostly cloudy.15 mph100%29.86 "Hg10 mi
2:56 pm63 °FLow clouds.9 mph100%29.87 "Hg10 mi
2:13 pm64 °FLow clouds.13 mph100%29.87 "Hg10 mi
1:56 pm64 °FFog.12 mph100%29.88 "Hg6 mi
12:56 pm63 °FFog.12 mph100%29.93 "Hg2 mi
12:36 pm63 °FFog.12 mph100%29.95 "Hg1 mi
11:56 am63 °FFog.10 mph100%29.97 "Hg2 mi
11:36 am63 °FFog.8 mph100%29.99 "Hg6 mi
10:56 am62 °FFog.7 mph100%30.00 "Hg6 mi
10:42 am63 °FFog.5 mph100%30.01 "Hg5 mi
10:33 am63 °FDrizzle. Fog.8 mph100%30.01 "Hg5 mi
10:16 am63 °FFog.7 mph100%30.02 "Hg6 mi
9:56 am62 °FFog.7 mph100%30.02 "Hg6 mi
9:08 am61 °FFog.5 mph100%30.03 "Hg1 mi
8:56 am60 °FFog.5 mph100%30.03 "Hg3 mi
8:36 am61 °FFog.3 mph100%30.03 "Hg3 mi
7:56 am59 °FFog.No wind100%30.02 "Hg5 mi
7:17 am59 °FFog.7 mph100%30.01 "Hg2 mi
6:56 am59 °FFog.3 mph100%30.04 "Hg4 mi
6:20 am59 °FFog.No wind100%30.04 "Hg3 mi
5:56 am59 °FFog.No wind99%30.04 "Hg2 mi
4:56 am59 °FFog.5 mph97%30.05 "Hg3 mi
4:25 am59 °FFog.No wind94%30.05 "Hg2 mi
4:00 am59 °FMostly cloudy.No wind94%30.06 "Hg10 mi
3:15 am59 °FOvercast.No wind94%30.08 "Hg10 mi
2:40 am59 °FLow clouds.No wind94%30.09 "Hg10 mi
2:16 am59 °FMostly cloudy.3 mph94%30.09 "Hg10 mi
1:56 am59 °FLow clouds.3 mph93%30.08 "Hg10 mi
1:17 am59 °FMostly cloudy.3 mph94%30.08 "Hg10 mi
Weather by CustomWeather, © 2019

See weather overview